Location: Meanaryar
(48.4161°N, 4.7315°W)
Time: 17:32:30
(UTC+00:00)

Cosmos 2082 Rocket - Pass Details

Date: 18 September 2020
Orbit: 834 x 853 km, 71.0° (Epoch: 30 October)

Event Time Altitude Azimuth Distance (km) Brightness Sun altitude
Rises 22:22:33 0° 331° (NNW) 3,392 6.4 -34.7°
Reaches altitude 10° 22:25:00 10° 330° (NNW) 2,455 5.4 -35.0°
Enters shadow 22:28:27 39° 326° (NW) 1,238 3.4 -35.3°
